Meteo orario Alimovskiy

Oggi, 28 Ottobre, Mercoledi

Tempo Temperatura Precipitazioni Vento Pressione Umidità
00:00 +2°C° 0 mm 6 m/s 762 mm Hg 58%
01:00 +2°C° 0 mm 5 m/s 762 mm Hg 56%
02:00 +2°C° 0 mm 5 m/s 762 mm Hg 55%
03:00 +1°C° 0 mm 5 m/s 762 mm Hg 55%
04:00 +1°C° 0 mm 5 m/s 762 mm Hg 55%
05:00 0°C° 0 mm 5 m/s 761 mm Hg 55%
06:00 0°C° 0 mm 5 m/s 761 mm Hg 54%
07:00 +1°C° 0 mm 5 m/s 761 mm Hg 53%
08:00 +2°C° 0 mm 6 m/s 761 mm Hg 51%
09:00 +3°C° 0 mm 6 m/s 762 mm Hg 49%
10:00 +4°C° 0 mm 6 m/s 762 mm Hg 44%
11:00 +7°C° 0 mm 6 m/s 761 mm Hg 40%
12:00 +8°C° 0 mm 6 m/s 761 mm Hg 36%
13:00 +9°C° 0 mm 7 m/s 761 mm Hg 37%
14:00 +9°C° 0 mm 7 m/s 761 mm Hg 37%
15:00 +10°C° 0 mm 6 m/s 761 mm Hg 38%
16:00 +8°C° 0 mm 6 m/s 761 mm Hg 41%
17:00 +7°C° 0 mm 5 m/s 761 mm Hg 44%
18:00 +6°C° 0 mm 5 m/s 760 mm Hg 47%
19:00 +5°C° 0 mm 5 m/s 760 mm Hg 48%
20:00 +5°C° 0 mm 5 m/s 760 mm Hg 49%
21:00 +3°C° 0 mm 5 m/s 760 mm Hg 50%
22:00 +3°C° 0 mm 5 m/s 760 mm Hg 51%
23:00 +2°C° 0 mm 5 m/s 760 mm Hg 52%

Domani, 29 Ottobre, Giovedi

Tempo Temperatura Precipitazioni Vento Pressione Umidità
00:00 +3°C° 0 mm 4 m/s 760 mm Hg 54%
01:00 +3°C° 0 mm 4 m/s 759 mm Hg 56%
02:00 +1°C° 0 mm 4 m/s 759 mm Hg 59%
03:00 +1°C° 0 mm 4 m/s 759 mm Hg 61%
04:00 +1°C° 0 mm 4 m/s 759 mm Hg 64%
05:00 +1°C° 0 mm 5 m/s 759 mm Hg 67%
06:00 0°C° 0 mm 5 m/s 758 mm Hg 70%
07:00 +1°C° 0 mm 5 m/s 758 mm Hg 67%
08:00 +2°C° 0 mm 5 m/s 758 mm Hg 64%
09:00 +3°C° 0 mm 6 m/s 758 mm Hg 61%
10:00 +4°C° 0 mm 6 m/s 757 mm Hg 57%
11:00 +7°C° 0 mm 6 m/s 757 mm Hg 52%
12:00 +8°C° 0 mm 6 m/s 757 mm Hg 48%
13:00 +9°C° 0 mm 6 m/s 756 mm Hg 47%
14:00 +11°C° 0 mm 6 m/s 756 mm Hg 47%
15:00 +13°C° 0 mm 6 m/s 756 mm Hg 47%
16:00 +12°C° 0 mm 5 m/s 755 mm Hg 52%
17:00 +10°C° 0 mm 5 m/s 755 mm Hg 57%
18:00 +9°C° 0 mm 5 m/s 755 mm Hg 62%
19:00 +9°C° 0 mm 5 m/s 755 mm Hg 61%
20:00 +8°C° 0 mm 5 m/s 755 mm Hg 60%
21:00 +8°C° 0 mm 6 m/s 754 mm Hg 59%
22:00 +8°C° 0 mm 6 m/s 754 mm Hg 60%
23:00 +8°C° 0 mm 5 m/s 754 mm Hg 62%

Dopodomani, 30 Ottobre, Venerdi

Tempo Temperatura Precipitazioni Vento Pressione Umidità
00:00 +8°C° 0 mm 5 m/s 753 mm Hg 63%
01:00 +8°C° 0 mm 5 m/s 753 mm Hg 67%
02:00 +8°C° 0 mm 5 m/s 753 mm Hg 71%
03:00 +7°C° 0 mm 5 m/s 753 mm Hg 75%
04:00 +7°C° 0 mm 5 m/s 753 mm Hg 74%
05:00 +7°C° 0 mm 5 m/s 753 mm Hg 72%
06:00 +7°C° 0 mm 5 m/s 753 mm Hg 71%
07:00 +8°C° 0 mm 5 m/s 752 mm Hg 69%
08:00 +8°C° 0 mm 6 m/s 752 mm Hg 67%
09:00 +9°C° 0 mm 6 m/s 752 mm Hg 66%
10:00 +9°C° 0.1 mm 5 m/s 752 mm Hg 70%
11:00 +9°C° 0.1 mm 5 m/s 752 mm Hg 74%
12:00 +10°C° 0.1 mm 4 m/s 752 mm Hg 79%
13:00 +10°C° 0.9 mm 4 m/s 752 mm Hg 82%
14:00 +10°C° 0.9 mm 4 m/s 751 mm Hg 85%
15:00 +10°C° 0.9 mm 4 m/s 751 mm Hg 89%
16:00 +10°C° 0.3 mm 4 m/s 751 mm Hg 88%
17:00 +11°C° 0.3 mm 4 m/s 751 mm Hg 87%
18:00 +11°C° 0.3 mm 4 m/s 751 mm Hg 87%
19:00 +11°C° 0.3 mm 4 m/s 751 mm Hg 87%
20:00 +11°C° 0.3 mm 4 m/s 751 mm Hg 88%
21:00 +11°C° 0.3 mm 4 m/s 751 mm Hg 88%
22:00 +11°C° 0.3 mm 3 m/s 751 mm Hg 89%
23:00 +11°C° 0.3 mm 3 m/s 750 mm Hg 89%

31 Ottobre, Sabato

Tempo Temperatura Precipitazioni Vento Pressione Umidità
00:00 +10°C° 0.3 mm 2 m/s 750 mm Hg 89%
01:00 +10°C° 0.9 mm 2 m/s 750 mm Hg 91%
02:00 +10°C° 0.9 mm 2 m/s 750 mm Hg 93%
03:00 +10°C° 0.9 mm 2 m/s 750 mm Hg 95%
04:00 +10°C° 0.2 mm 2 m/s 750 mm Hg 95%
05:00 +10°C° 0.2 mm 2 m/s 750 mm Hg 96%
06:00 +10°C° 0.2 mm 2 m/s 750 mm Hg 96%
07:00 +12°C° 0 mm 2 m/s 750 mm Hg 94%
08:00 +12°C° 0 mm 2 m/s 750 mm Hg 93%
09:00 +13°C° 0 mm 1 m/s 750 mm Hg 91%
10:00 +14°C° 0 mm 1 m/s 750 mm Hg 86%
11:00 +15°C° 0 mm 1 m/s 750 mm Hg 80%
12:00 +16°C° 0 mm 1 m/s 750 mm Hg 75%
13:00 +18°C° 0 mm 1 m/s 751 mm Hg 71%
14:00 +18°C° 0 mm 1 m/s 751 mm Hg 67%
15:00 +17°C° 0 mm 0 m/s 751 mm Hg 63%
16:00 +18°C° 0 mm 1 m/s 751 mm Hg 68%
17:00 +16°C° 0 mm 2 m/s 751 mm Hg 74%
18:00 +15°C° 0 mm 2 m/s 751 mm Hg 79%
19:00 +15°C° 0.2 mm 2 m/s 752 mm Hg 82%
20:00 +14°C° 0.2 mm 2 m/s 752 mm Hg 86%
21:00 +14°C° 0.2 mm 2 m/s 752 mm Hg 89%
22:00 +13°C° 0.5 mm 3 m/s 752 mm Hg 90%
23:00 +13°C° 0.5 mm 3 m/s 752 mm Hg 91%

1 Novenbre, Domenica

Tempo Temperatura Precipitazioni Vento Pressione Umidità
00:00 +13°C° 0.5 mm 3 m/s 752 mm Hg 93%
01:00 +13°C° 0 mm 3 m/s 752 mm Hg 92%
02:00 +12°C° 0 mm 3 m/s 752 mm Hg 91%
03:00 +12°C° 0 mm 3 m/s 752 mm Hg 91%
04:00 +12°C° 0 mm 4 m/s 753 mm Hg 89%
05:00 +11°C° 0 mm 4 m/s 753 mm Hg 87%
06:00 +11°C° 0 mm 4 m/s 753 mm Hg 85%
07:00 +12°C° 0 mm 5 m/s 753 mm Hg 77%
08:00 +12°C° 0 mm 5 m/s 753 mm Hg 69%
09:00 +11°C° 0 mm 6 m/s 754 mm Hg 61%
10:00 +13°C° 0 mm 6 m/s 754 mm Hg 56%
11:00 +14°C° 0 mm 6 m/s 754 mm Hg 50%
12:00 +15°C° 0 mm 6 m/s 754 mm Hg 45%
13:00 +15°C° 0 mm 6 m/s 755 mm Hg 42%
14:00 +16°C° 0 mm 5 m/s 755 mm Hg 40%
15:00 +16°C° 0 mm 5 m/s 755 mm Hg 37%
16:00 +15°C° 0 mm 5 m/s 755 mm Hg 39%
17:00 +14°C° 0 mm 4 m/s 755 mm Hg 41%
18:00 +13°C° 0 mm 3 m/s 756 mm Hg 42%
19:00 +13°C° 0 mm 3 m/s 756 mm Hg 43%
20:00 +12°C° 0 mm 3 m/s 756 mm Hg 45%
21:00 +11°C° 0 mm 3 m/s 756 mm Hg 46%
22:00 +11°C° 0 mm 3 m/s 757 mm Hg 46%
23:00 +10°C° 0 mm 3 m/s 757 mm Hg 46%

2 Novenbre, Lunedi

Tempo Temperatura Precipitazioni Vento Pressione Umidità
00:00 +10°C° 0 mm 3 m/s 758 mm Hg 47%
01:00 +9°C° 0 mm 3 m/s 758 mm Hg 48%
02:00 +9°C° 0 mm 3 m/s 758 mm Hg 49%
03:00 +8°C° 0 mm 3 m/s 758 mm Hg 50%
04:00 +8°C° 0 mm 3 m/s 758 mm Hg 52%
05:00 +8°C° 0 mm 3 m/s 759 mm Hg 54%
06:00 +7°C° 0 mm 3 m/s 759 mm Hg 56%
07:00 +7°C° 0 mm 4 m/s 759 mm Hg 54%
08:00 +8°C° 0 mm 4 m/s 760 mm Hg 53%
09:00 +9°C° 0 mm 5 m/s 760 mm Hg 51%
10:00 +10°C° 0 mm 5 m/s 760 mm Hg 47%
11:00 +13°C° 0 mm 5 m/s 760 mm Hg 42%
12:00 +14°C° 0 mm 5 m/s 760 mm Hg 38%
13:00 +15°C° 0 mm 5 m/s 760 mm Hg 36%
14:00 +16°C° 0 mm 5 m/s 760 mm Hg 35%
15:00 +16°C° 0 mm 6 m/s 760 mm Hg 33%
16:00 +15°C° 0 mm 5 m/s 760 mm Hg 36%
17:00 +13°C° 0 mm 5 m/s 761 mm Hg 39%
18:00 +12°C° 0 mm 4 m/s 761 mm Hg 43%
19:00 +12°C° 0 mm 5 m/s 761 mm Hg 45%
20:00 +10°C° 0 mm 5 m/s 761 mm Hg 47%
21:00 +10°C° 0 mm 5 m/s 761 mm Hg 49%
22:00 +9°C° 0 mm 5 m/s 762 mm Hg 52%
23:00 +9°C° 0 mm 5 m/s 762 mm Hg 54%
Mostrare altro

Abbiamo bisogno del tuo consenso

Meteoprog e i nostri fornitori di servizi possono memorizzare e accedere a dati personali come cookie, identificatori di dispositivi o altre tecnologie simili sul tuo dispositivo e possono elaborare tali dati per personalizzare i contenuti e gli annunci, nonché fornire funzionalità dei social media e analizzarne il traffico.

  • Archiviare e/o accedere alle informazioni sul tuo dispositivo

    Cookie, identificatori di dispositivi o altre informazioni possono essere memorizzati o resi accessibili sul tuo dispositivo per le finalità sopra indicate.

  • Annunci e contenuti personalizzati, misurazione di annunci e contenuti, approfondimenti sul pubblico e sviluppo di prodotti

    Gli annunci e i contenuti possono essere personalizzati in base a un profilo. È possibile aggiungere più dati per personalizzare meglio annunci e contenuti. È possibile misurare il rendimento degli annunci e dei contenuti. È possibile ricavare informazioni sul pubblico che ha visto gli annunci e i contenuti. Tali dati possono essere utilizzati per sviluppare o migliorare l'esperienza, i sistemi e il software dell'utente.

Cliccando su “Accetto”, acconsenti all'uso di cookie, identificatori di dispositivo, web beacon o altre tecnologie simili. Puoi modificare le impostazioni nel browser del tuo dispositivo.

Per determinati scopi, è possibile fare affidamento su interessi legali, piuttosto che sul consenso. Puoi approfondire questo argomento consultando la nostra Informativa sulla privacy e sui cookie.